Kosmos-2334

operational
NORAD ID: 24304 Int'l Des: 1996-052 Owner: VMFR Country: RU
LEOCIRCULARPOLAR

Über Kosmos-2334

Beschreibung wird geladen...

Live-Position

3D-Globus wird geladen...

Nächste Überflüge

Höhenverlauf

Altitude vs Time

uPlot chart will show altitude changes over time

Zweizeiliger Elementsatz

1 24304U 96052A 26062.37083609 .00000068 00000-0 56052-4 0 9993
2 24304 82.9380 159.0760 0029655 194.0323 231.8336 13.73802566478109
Epoch: 3. März 2026 • Age: 23 hours

Aktueller Status

Höhe 968.0 km
Geschwindigkeit 7.38 km/s
Subsatellitenpunkt 10.93°N, 175.25°W
Startdatum 5. Sept. 1996
Alter 29.4 years
Typ other

Technische Details

Klassifizierung Payload
Masse 800.00 kg
Trockenmasse 800.00 kg
Gesamtmasse 800.00 kg
Länge 5.00 m
Durchmesser 2.10 m
Spannweite 17.00 m
Form Cyl + Ant
Hersteller POL
Bus-Typ KAUR-1 11F627
Phasenstatus Unknown Transfer Status
Besitzer/Staat VMFR/RU

Große Konstellationen

Loading constellations...